Temperature
25 25 25 23 23 22 22 21 21 20 19 16 15 14 13 12 11 11 10 10 10 10 10 10 10 9 9 9 9 9 9 9 9 9 9 9 9 10 10 11 11 12 12 12
24 24 23 22 21 20 19 19 19 18 17 15 14 13 12 11 11 11 11 11 11 11 11 10 10 10 10 9 9 9 9 9 9 9 9 9 9 9 10 10 10 11 11 11
24 24 23 21 18 18 18 18 17 17 15 15 14 13 12 12 12 12 12 12 11 11 11 10 10 10 10 9 9 9 9 9 9 9 9 9 9 9 9 9 10 10 11 11
24 23 21 17 18 17 17 17 16 15 15 15 14 13 13 13 13 12 11 11 11 10 10 10 10 10 9 9 9 9 9 9 9 9 9 9 9 9 9 9 9 10 10 10
23 23 20 16 17 16 16 16 16 15 15 15 14 13 14 14 12 11 11 10 10 10 10 9 9 9 9 9 9 9 9 8 8 8 8 8 8 8 8 8 8 9 9 10
21 20 20 16 16 16 16 16 15 15 14 14 13 14 14 12 11 11 10 10 10 9 9 9 9 9 8 8 8 8 8 8 8 8 8 8 8 8 8 8 8 8 9 9
20 20 18 16 16 16 15 15 14 13 13 13 13 12 11 11 11 10 10 9 9 9 9 9 8 8 8 8 8 8 8 8 7 7 7 7 7 7 7 8 8 8 8 9
19 18 17 15 16 15 14 13 13 13 12 12 11 11 11 10 10 10 10 9 9 9 9 8 8 8 8 8 7 7 7 7 7 7 7 7 7 7 7 7 7 8 8 8
18 18 16 15 14 14 13 13 12 12 11 11 11 11 10 10 10 10 9 9 9 8 8 8 8 8 7 7 7 7 7 6 6 6 6 6 7 7 7 8 8 8 8 8
17 17 16 15 14 14 13 12 11 11 11 10 10 10 10 10 9 9 9 9 8 8 8 8 7 7 7 7 6 6 6 6 6 6 6 6 6 7 8 8 8 8 7 7
17 16 15 15 14 13 12 11 11 11 10 10 10 10 10 9 9 9 8 8 8 7 7 7 7 6 6 6 6 6 6 6 6 6 6 6 6 7 7 7 8 7 7 7
16 15 14 14 13 12 11 11 10 10 10 10 10 9 9 9 8 8 8 7 7 7 6 6 6 5 5 5 5 5 5 5 5 5 5 6 6 7 7 7 7 7 7 7
14 13 13 12 12 11 11 10 10 10 10 10 9 9 9 8 8 7 7 7 6 5 5 5 4 4 4 4 4 4 4 5 5 5 5 5 6 6 7 7 7 7 7 7
13 12 12 11 11 10 10 10 10 10 9 9 9 8 8 7 7 7 6 5 5 4 4 4 4 4 4 4 4 4 4 4 4 4 4 5 5 6 6 7 7 6 6 7
12 11 11 11 10 10 10 10 9 9 9 8 8 8 7 7 6 5 5 4 4 3 3 4 4 4 4 4 4 4 4 4 4 4 4 5 5 6 6 6 6 6 6 7
11 11 11 10 10 10 9 9 9 8 8 8 7 7 6 6 5 4 4 3 3 3 3 3 4 4 4 4 4 4 4 4 4 4 5 5 5 6 6 6 6 6 6 7
11 11 10 10 9 9 9 8 8 8 7 7 6 6 5 5 4 3 3 3 3 3 4 4 4 4 4 4 4 4 4 4 4 4 5 5 6 6 6 6 6 6 6 7
10 10 9 9 9 8 8 8 7 7 6 6 5 5 4 4 3 3 3 3 3 4 4 4 4 4 4 4 4 4 4 4 4 5 5 5 6 6 6 6 6 6 7 7
10 9 9 8 8 7 7 7 6 6 6 5 5 4 4 3 3 3 3 3 4 4 4 4 4 4 4 4 4 4 4 4 5 5 5 6 6 6 6 6 6 7 7 7
9 9 8 8 7 7 6 6 6 5 5 5 4 4 3 3 3 3 3 4 4 4 4 4 4 4 4 4 4 5 5 5 5 6 6 6 6 6 6 6 7 7 8 8
9 8 8 7 6 6 6 5 5 5 5 4 4 3 3 3 3 3 3 4 4 4 4 4 4 4 4 4 5 5 5 5 6 6 6 6 6 6 6 7 7 8 8 9
8 7 7 6 6 6 5 5 5 5 4 4 3 3 3 3 3 3 4 4 4 5 5 5 5 5 5 5 5 5 6 6 6 6 6 7 7 7 7 8 8 9 9 9
7 6 6 6 5 5 5 5 5 4 4 3 3 3 3 3 3 3 4 4 5 5 5 5 5 5 5 6 6 6 6 6 6 7 7 7 7 7 8 8 9 9 9 10
6 6 5 5 5 5 5 5 4 4 3 3 3 3 3 3 3 4 4 4 5 5 5 6 6 6 6 6 6 7 7 7 7 7 7 8 8 8 9 9 9 9 10 10
6 5 5 5 5 5 5 4 4 4 3 3 3 3 3 3 3 4 4 5 5 6 6 6 6 6 7 7 7 7 7 7 7 8 8 8 9 9 9 10 10 10 10 11
6 5 5 5 5 5 5 4 4 3 3 3 3 3 3 3 4 4 4 5 5 6 6 6 7 7 7 7 7 7 7 7 8 8 8 9 9 10 10 10 11 11 11 11
6 6 6 5 5 5 5 4 4 3 3 3 3 3 3 4 4 4 5 5 5 6 6 6 7 7 7 7 7 8 8 8 8 9 9 9 10 10 11 11 11 12 12 12
Wind_Speed
9 8 5 3 4 6 6 8 9 10 6 4 7 9 11 12 13 14 14 13 12 12 12 12 12 12 12 12 11 11 12 12 12 12 12 13 14 15 15 14 14 13 13 12
8 3 1 1 4 4 4 6 8 8 3 4 9 10 12 13 15 16 16 16 16 16 17 17 17 17 16 16 15 15 15 15 15 14 14 14 14 14 14 14 14 13 13 12
8 2 7 2 6 7 6 6 8 9 5 10 14 15 15 17 18 18 18 18 20 20 20 20 19 19 18 18 18 17 17 17 17 17 16 15 15 14 14 14 13 13 12 11
9 9 9 6 5 7 8 7 5 5 9 14 17 18 19 19 18 17 20 22 22 22 22 22 21 21 20 20 19 19 19 19 18 18 17 16 15 15 14 12 12 12 12 11
7 11 0 5 4 8 10 12 3 8 16 19 21 22 21 16 17 21 23 23 23 23 23 22 22 22 21 21 21 20 20 19 19 18 18 17 16 15 14 12 11 11 11 11
7 10 6 4 6 7 9 8 4 15 21 22 24 22 20 22 24 24 24 22 23 24 24 23 22 22 22 22 21 21 20 19 18 18 18 18 17 16 14 12 11 11 10 11
8 8 2 5 8 10 9 11 17 20 22 23 23 22 25 26 25 25 25 25 24 24 23 22 22 22 23 23 22 21 20 19 19 18 18 18 17 15 14 12 11 10 10 10
7 6 2 6 8 7 12 16 19 22 23 24 25 26 26 26 26 26 26 26 26 24 23 23 23 23 24 23 22 21 20 20 19 18 17 16 16 15 14 12 11 9 8 8
5 5 3 5 8 11 14 18 21 21 24 25 26 27 28 27 27 27 27 26 25 25 25 24 23 22 24 23 22 21 21 20 19 18 17 16 16 16 14 12 10 8 6 6
5 4 6 11 12 14 18 21 23 23 25 26 28 29 29 28 27 27 27 26 25 26 26 24 23 23 22 23 21 21 21 20 18 17 17 16 14 14 13 12 9 8 5 6
7 7 12 11 16 20 21 22 23 24 25 26 28 29 29 27 27 26 26 26 25 25 25 26 24 22 22 22 21 21 20 18 17 16 16 15 14 13 14 12 9 8 6 6
8 10 13 19 20 22 22 23 24 26 27 27 27 29 29 27 26 26 27 26 25 25 25 25 24 23 22 21 20 19 17 16 14 13 12 13 13 13 13 13 10 10 10 9
9 14 17 21 22 22 21 24 26 26 28 28 27 27 28 27 26 27 27 27 26 25 25 24 24 23 21 20 18 18 17 15 12 12 12 12 12 12 11 10 12 13 13 14
12 15 19 20 22 22 24 25 26 27 27 27 27 27 27 27 27 28 27 27 25 25 25 24 23 23 22 20 17 17 16 15 13 11 12 12 12 12 11 9 7 7 9 13
13 16 19 20 22 23 24 25 27 27 27 27 26 26 27 28 27 27 26 26 24 24 24 23 23 22 20 18 16 16 13 10 10 11 11 11 11 11 10 9 8 6 5 6
16 17 18 20 23 24 26 27 27 27 28 27 27 27 28 27 26 26 25 24 24 24 23 22 22 21 18 16 14 12 10 13 12 10 10 10 10 10 9 8 7 6 6 7
16 18 20 22 24 25 26 26 26 27 27 27 28 28 28 27 26 25 25 24 23 22 21 20 20 18 15 13 12 9 8 9 12 11 10 10 10 9 8 6 5 5 7 11
15 17 20 22 23 25 26 26 26 26 26 27 27 27 27 26 25 25 25 24 22 21 19 17 15 16 14 11 8 6 6 6 7 8 8 9 8 7 5 5 5 6 7 12
16 18 20 21 22 23 24 25 25 25 26 25 26 26 26 25 24 24 24 23 21 19 18 16 16 14 11 8 6 5 5 6 6 7 7 7 7 6 5 5 5 7 11 15
16 18 20 22 22 22 23 23 24 24 24 25 25 25 25 24 24 24 23 19 15 14 16 16 15 11 9 6 5 3 3 4 4 5 5 5 5 5 5 6 7 10 14 17
17 18 20 21 21 22 22 23 22 23 24 24 24 24 24 24 23 21 19 17 16 16 16 14 10 9 8 7 5 3 1 2 3 3 3 3 3 4 5 6 8 13 15 17
16 17 19 20 21 21 20 20 21 23 24 23 24 24 23 23 23 21 19 15 16 16 13 10 8 9 10 9 3 2 1 1 1 1 2 2 3 3 4 7 11 13 15 16
14 16 17 18 19 20 20 20 22 22 23 23 23 23 22 20 17 17 17 16 15 17 13 9 10 11 12 6 3 2 1 1 1 1 1 1 2 3 6 10 12 13 14 15
14 15 16 17 17 17 19 20 21 19 21 21 21 21 19 17 16 15 14 17 18 18 11 8 9 11 11 4 3 3 2 2 1 1 0 1 3 4 7 10 12 13 14 16
13 14 14 16 15 15 17 19 19 19 20 18 21 22 18 14 15 16 16 18 19 16 12 9 8 9 7 5 5 4 4 4 4 3 2 3 4 7 9 11 12 13 13 14
12 11 11 12 12 13 14 15 15 16 16 17 18 17 17 16 17 16 15 17 20 17 13 10 10 8 7 6 6 6 5 4 3 2 3 4 6 8 9 11 14 12 12 12
10 10 9 11 12 13 14 14 14 15 15 17 17 17 17 17 17 17 18 16 15 14 13 12 11 9 8 8 7 7 5 4 4 3 4 5 6 8 10 12 11 11 11 11
Wind_Direction
289 298 291 297 316 322 315 318 309 323 335 40 0 334 322 316 313 310 307 304 302 300 299 299 298 296 295 296 296 295 295 294 295 298 302 304 307 309 307 296 282 271 262 257
278 276 202 104 22 357 351 342 330 318 321 10 324 311 306 305 305 302 300 299 300 301 304 305 305 303 303 302 300 296 293 292 292 292 292 296 301 304 307 305 293 276 262 254
290 246 246 222 28 4 347 335 325 319 331 325 318 315 310 306 302 301 306 308 308 309 307 305 303 302 300 299 298 296 293 290 289 290 291 292 296 300 304 307 304 286 264 252
295 288 279 83 43 1 333 315 304 295 314 320 315 311 306 298 299 307 311 308 306 306 305 303 302 300 298 296 294 293 292 290 289 288 288 290 291 293 296 301 302 294 273 250
309 303 236 110 25 353 327 311 291 312 321 319 317 311 303 314 321 313 307 305 304 302 302 301 300 298 296 295 293 291 290 290 289 289 288 288 286 288 292 293 297 296 285 258
321 312 315 79 13 336 305 291 13 326 319 318 317 311 313 322 313 306 305 303 302 301 299 297 297 297 295 293 291 289 289 289 288 286 284 284 283 283 285 284 286 293 287 270
326 313 59 39 347 326 306 322 327 318 316 315 312 307 307 309 307 306 303 301 299 298 296 296 296 294 291 289 288 288 288 286 284 282 280 278 276 274 275 276 281 288 286 274
328 315 20 16 341 335 313 313 313 314 313 311 308 306 306 307 306 305 303 301 301 299 297 295 293 291 288 287 287 287 286 283 280 279 279 277 272 270 270 272 274 277 283 277
327 330 6 331 313 311 311 311 314 314 312 310 308 307 307 307 306 305 304 302 301 299 297 294 292 290 288 288 288 286 283 280 278 277 275 272 269 266 264 260 263 272 278 267
293 292 312 313 311 317 319 317 314 312 310 310 308 307 307 306 306 305 304 303 302 300 297 296 295 292 289 288 286 283 279 276 273 272 271 268 262 259 259 258 255 258 266 261
290 314 316 313 323 323 319 315 312 310 309 309 308 307 307 307 306 306 305 304 303 300 298 297 295 293 290 288 285 280 276 273 270 269 269 269 264 257 258 258 256 251 252 254
325 331 315 314 320 319 316 315 314 313 311 311 309 308 309 308 308 307 305 305 303 301 300 299 298 295 292 288 284 280 276 272 266 264 264 263 261 258 238 236 211 208 229 237
309 315 312 311 313 317 316 314 314 313 313 312 312 312 311 309 308 307 306 306 305 304 302 299 296 294 291 287 282 276 272 269 263 260 260 259 256 254 253 232 209 212 222 225
307 310 310 315 317 316 316 316 315 314 314 315 315 314 312 310 309 309 308 307 306 303 300 298 295 291 289 286 279 274 270 264 257 253 254 254 253 251 252 250 236 227 219 213
314 317 313 313 314 317 319 319 319 318 319 318 318 315 314 313 311 310 309 308 306 302 299 297 295 293 291 286 279 273 267 259 250 247 247 246 246 247 247 244 240 235 219 191
315 314 315 318 319 321 322 322 321 320 320 320 319 318 316 314 312 311 310 309 306 303 301 300 296 294 292 287 279 272 263 253 248 245 241 241 242 242 239 233 229 224 206 177
316 320 323 323 323 322 322 322 321 320 320 320 320 319 318 317 315 312 311 310 307 305 303 301 300 300 298 289 278 267 256 244 234 237 237 237 238 237 234 224 221 214 195 174
316 317 320 321 322 321 321 322 322 321 321 320 320 320 320 318 315 314 313 313 312 311 310 311 312 310 304 294 281 263 247 237 227 228 231 235 236 231 223 216 221 207 182 166
319 320 321 322 323 321 321 321 322 321 321 322 323 321 318 316 316 316 316 316 317 319 323 325 319 313 310 306 294 266 246 231 227 226 226 222 228 225 215 218 225 202 170 163
320 322 323 323 323 324 322 322 323 321 323 325 323 321 321 321 322 321 322 320 319 324 324 326 326 328 329 329 311 270 236 228 225 224 224 222 220 213 213 218 211 177 160 163
324 325 325 325 324 324 324 325 323 323 327 328 326 325 324 324 326 327 326 327 329 334 332 326 333 347 350 343 312 307 262 234 231 233 228 226 217 208 213 205 175 157 157 163
325 325 325 325 325 325 326 325 326 329 330 329 329 328 328 329 330 330 328 332 331 333 333 336 349 355 345 327 331 355 331 272 262 249 235 214 203 196 188 162 151 153 159 165
324 324 324 325 326 324 323 328 333 334 332 331 330 331 332 331 331 332 333 333 334 331 333 344 347 338 323 317 341 1 12 348 326 292 231 198 171 162 152 146 147 153 160 165
323 325 325 325 326 325 330 334 334 333 332 331 332 334 335 333 334 336 331 328 333 331 339 345 332 325 310 327 356 8 15 7 348 344 35 115 129 135 138 142 148 153 159 164
323 323 325 329 330 331 331 332 334 336 336 336 337 339 339 338 337 336 335 337 340 339 346 348 332 319 324 355 358 358 3 12 9 13 58 102 122 129 135 142 147 149 155 162
323 323 327 325 329 330 334 336 336 336 337 338 339 340 341 343 342 342 342 345 349 349 352 352 352 342 351 356 357 1 7 18 26 44 76 104 122 129 134 138 141 144 148 154
321 327 330 334 339 341 339 338 337 337 340 343 340 341 345 346 346 347 349 351 353 355 357 358 0 2 0 3 10 13 16 22 39 68 93 104 113 120 126 128 129 133 140 144
Height
1497 1495 1497 1502 1504 1505 1505 1506 1507 1506 1510 1519 1524 1526 1525 1523 1520 1517 1513 1509 1506 1502 1499 1495 1492 1488 1484 1481 1477 1474 1470 1467 1463 1460 1457 1454 1451 1448 1445 1442 1440 1438 1437 1436
1500 1498 1500 1507 1511 1512 1513 1514 1513 1513 1518 1524 1525 1524 1522 1519 1516 1512 1508 1504 1501 1497 1494 1490 1487 1483 1479 1475 1472 1468 1465 1461 1458 1455 1453 1450 1446 1443 1439 1436 1433 1431 1430 1429
1498 1498 1502 1511 1521 1520 1519 1518 1519 1517 1522 1523 1521 1520 1517 1514 1510 1506 1503 1499 1496 1493 1489 1485 1481 1477 1473 1469 1466 1462 1458 1455 1452 1449 1446 1444 1441 1437 1434 1430 1426 1425 1424 1423
1499 1501 1510 1526 1525 1525 1523 1520 1520 1522 1521 1520 1518 1515 1512 1508 1504 1500 1498 1495 1490 1486 1482 1478 1474 1470 1466 1462 1458 1455 1451 1447 1444 1442 1439 1436 1434 1431 1428 1425 1421 1419 1417 1417
1504 1503 1510 1527 1526 1527 1525 1519 1520 1521 1519 1517 1513 1509 1504 1500 1499 1497 1493 1489 1484 1480 1475 1470 1466 1462 1457 1454 1450 1447 1443 1440 1437 1434 1431 1429 1427 1424 1422 1419 1415 1413 1411 1411
1509 1514 1514 1530 1528 1528 1527 1519 1521 1521 1518 1514 1510 1502 1497 1497 1495 1490 1486 1481 1476 1471 1467 1462 1458 1454 1449 1445 1441 1438 1435 1432 1429 1426 1423 1421 1419 1416 1415 1413 1410 1407 1405 1404
1515 1515 1517 1528 1528 1526 1526 1522 1522 1519 1516 1512 1507 1503 1497 1492 1487 1483 1478 1473 1468 1463 1458 1453 1449 1445 1440 1436 1432 1429 1426 1423 1420 1417 1415 1412 1410 1409 1408 1406 1404 1402 1400 1399
1518 1521 1526 1529 1527 1528 1528 1524 1520 1516 1512 1507 1502 1496 1490 1485 1480 1475 1469 1464 1459 1453 1448 1443 1439 1435 1429 1425 1422 1419 1416 1413 1410 1408 1406 1404 1403 1402 1401 1399 1398 1396 1394 1393
1525 1526 1529 1529 1529 1528 1525 1521 1517 1512 1507 1502 1495 1489 1483 1477 1471 1465 1460 1454 1449 1444 1437 1433 1429 1425 1419 1415 1412 1409 1406 1403 1400 1399 1397 1396 1395 1394 1393 1393 1392 1391 1389 1388
1526 1525 1528 1528 1526 1524 1522 1518 1513 1508 1502 1496 1489 1482 1475 1469 1462 1456 1450 1445 1439 1433 1427 1422 1418 1414 1409 1405 1401 1398 1394 1392 1390 1389 1388 1387 1386 1386 1386 1386 1385 1385 1384 1384
1525 1526 1527 1523 1523 1521 1517 1512 1507 1502 1497 1490 1483 1475 1468 1460 1454 1447 1441 1435 1429 1423 1416 1411 1406 1401 1397 1393 1390 1386 1383 1382 1380 1379 1378 1377 1377 1377 1378 1378 1379 1379 1379 1379
1527 1528 1527 1523 1520 1517 1512 1506 1501 1495 1488 1482 1476 1468 1460 1453 1446 1439 1432 1425 1419 1412 1406 1400 1394 1389 1385 1382 1378 1375 1372 1371 1370 1369 1369 1369 1369 1369 1369 1370 1371 1371 1372 1374
1531 1528 1525 1521 1517 1512 1507 1501 1495 1489 1482 1474 1467 1461 1453 1445 1438 1430 1423 1416 1409 1401 1394 1388 1382 1376 1372 1369 1366 1363 1361 1360 1360 1360 1360 1360 1361 1361 1362 1362 1363 1364 1365 1366
1529 1526 1521 1517 1512 1507 1502 1495 1489 1482 1475 1468 1461 1453 1446 1438 1429 1422 1414 1406 1398 1390 1383 1376 1370 1364 1360 1357 1354 1351 1350 1350 1350 1350 1351 1352 1353 1354 1355 1355 1356 1356 1357 1359
1525 1522 1518 1512 1507 1502 1496 1489 1482 1475 1468 1461 1454 1446 1438 1430 1421 1412 1404 1396 1387 1379 1372 1365 1359 1352 1348 1345 1342 1341 1340 1340 1341 1341 1342 1344 1345 1346 1347 1348 1349 1350 1351 1354
1521 1518 1513 1508 1503 1497 1490 1484 1476 1469 1461 1454 1446 1439 1431 1422 1413 1403 1395 1386 1377 1369 1361 1354 1348 1342 1338 1335 1333 1331 1331 1332 1333 1334 1336 1337 1338 1340 1341 1342 1344 1345 1346 1349
1517 1513 1508 1503 1498 1492 1486 1479 1472 1464 1456 1448 1440 1432 1423 1413 1404 1394 1385 1377 1369 1360 1352 1345 1339 1333 1330 1327 1325 1324 1324 1325 1326 1328 1330 1331 1333 1334 1336 1337 1338 1339 1342 1346
1515 1511 1506 1501 1494 1487 1480 1474 1467 1460 1452 1444 1435 1425 1416 1406 1396 1386 1377 1368 1360 1352 1345 1338 1332 1327 1323 1320 1319 1318 1319 1320 1322 1323 1325 1327 1328 1330 1331 1332 1334 1336 1339 1345
1511 1507 1502 1497 1491 1484 1477 1470 1462 1455 1447 1439 1429 1420 1410 1401 1390 1380 1371 1362 1354 1346 1339 1333 1327 1323 1319 1316 1315 1315 1316 1317 1318 1320 1322 1323 1325 1326 1327 1328 1330 1333 1337 1344
1507 1503 1498 1492 1486 1480 1473 1465 1458 1450 1443 1434 1424 1415 1405 1395 1385 1375 1366 1358 1351 1344 1337 1331 1325 1321 1318 1316 1314 1314 1315 1316 1317 1318 1319 1321 1322 1323 1324 1325 1327 1331 1337 1346
1503 1498 1493 1487 1481 1475 1469 1462 1454 1446 1438 1430 1421 1411 1401 1391 1381 1372 1362 1354 1348 1342 1336 1330 1326 1322 1319 1317 1316 1316 1316 1316 1317 1317 1318 1318 1319 1320 1321 1323 1327 1332 1339 1348
1499 1494 1489 1483 1477 1471 1465 1459 1452 1444 1435 1426 1417 1408 1398 1387 1378 1369 1361 1355 1347 1341 1336 1332 1328 1324 1321 1319 1318 1318 1317 1317 1317 1317 1317 1317 1317 1318 1320 1324 1329 1335 1342 1350
1495 1490 1485 1480 1474 1468 1462 1456 1449 1441 1432 1423 1415 1405 1396 1387 1377 1369 1360 1353 1347 1342 1337 1334 1330 1327 1324 1322 1321 1320 1319 1318 1318 1317 1317 1317 1318 1320 1323 1327 1332 1338 1345 1352
1491 1486 1481 1476 1471 1465 1460 1453 1446 1438 1431 1422 1414 1405 1396 1386 1376 1369 1361 1354 1348 1343 1339 1335 1332 1329 1327 1325 1324 1323 1322 1320 1320 1319 1319 1319 1320 1323 1326 1331 1336 1342 1348 1355
1487 1483 1478 1473 1469 1464 1458 1451 1443 1436 1429 1421 1413 1404 1396 1387 1378 1369 1362 1355 1349 1344 1341 1337 1335 1332 1330 1329 1327 1325 1324 1323 1322 1321 1322 1322 1324 1327 1331 1336 1340 1346 1351 1357
1484 1480 1476 1472 1468 1462 1456 1450 1443 1436 1428 1420 1412 1404 1396 1387 1379 1371 1364 1357 1352 1347 1343 1340 1337 1334 1332 1331 1329 1328 1326 1326 1325 1325 1326 1328 1330 1333 1337 1341 1346 1351 1355 1360
1482 1478 1474 1470 1466 1461 1456 1449 1443 1436 1429 1422 1414 1406 1398 1389 1381 1374 1367 1361 1355 1351 1346 1343 1340 1337 1335 1333 1332 1330 1330 1329 1330 1330 1332 1334 1336 1339 1343 1347 1351 1355 1359 1363